This is the latest recevied weather packets stored in our database for station/object KK4KTV-13. If no packets are shown the sender has not sent any weather packets the latest 10 day(s).
| Time | Temp. | Humidity | Pressure | Rain* | Wind** | Luminosity | Snow |
|---|---|---|---|---|---|---|---|
| 1777326550 | 27.22° C | 47% | 1011.1 hPa | 0 mm | - | 243 W/m² | - |
| 1777326248 | 27.22° C | 47% | 1010.9 hPa | 0 mm | - | 255 W/m² | - |
| 1777325945 | 27.22° C | 46% | 1011 hPa | 0 mm | - | 301 W/m² | - |
| 1777325643 | 27.22° C | 48% | 1011.2 hPa | 0 mm | - | 301 W/m² | - |
| 1777325341 | 27.78° C | 49% | 1011.4 hPa | 0 mm | - | 264 W/m² | - |
| 1777325039 | 27.78° C | 48% | 1011.5 hPa | 0 mm | - | 318 W/m² | - |
| 1777324735 | 27.22° C | 49% | 1011.5 hPa | 0 mm | - | 277 W/m² | - |
| 1777324433 | 27.78° C | 46% | 1011.6 hPa | 0 mm | - | 312 W/m² | - |
| 1777324130 | 27.78° C | 46% | 1012.1 hPa | 0 mm | - | 365 W/m² | - |
| 1777323828 | 27.78° C | 49% | 1011.9 hPa | 0 mm | - | 384 W/m² | - |
| 1777323525 | 27.22° C | 48% | 1012.1 hPa | 0 mm | - | 372 W/m² | - |
| 1777323222 | 26.67° C | 49% | 1012.1 hPa | 0 mm | - | 375 W/m² | - |
| 1777322919 | 27.22° C | 48% | 1012.1 hPa | 0 mm | - | 297 W/m² | - |
| 1777322618 | 27.22° C | 48% | 1012.1 hPa | 0 mm | - | 305 W/m² | - |
| 1777322315 | 26.67° C | 49% | 1012.4 hPa | 0 mm | - | 292 W/m² | - |
| 1777322011 | 27.22° C | 49% | 1012.5 hPa | 0 mm | - | 328 W/m² | - |
| 1777321708 | 27.22° C | 49% | 1012.5 hPa | 0 mm | - | 332 W/m² | - |
| 1777321404 | 27.22° C | 51% | 1012.9 hPa | 0 mm | - | 382 W/m² | - |
| 1777321102 | 27.22° C | 48% | 1012.9 hPa | 0 mm | - | 362 W/m² | - |
| 1777320800 | 27.22° C | 48% | 1013.1 hPa | 0 mm | - | 363 W/m² | - |
| 1777320496 | 27.22° C | 47% | 1013.1 hPa | 0 mm | - | 360 W/m² | - |
| 1777320194 | 26.67° C | 48% | 1013.1 hPa | 0 mm | - | 338 W/m² | - |
| 1777319890 | 26.67° C | 47% | 1013 hPa | 0 mm | - | 346 W/m² | - |
| 1777319588 | 27.22° C | 46% | 1013.1 hPa | 0 mm | - | 346 W/m² | - |
| 1777319284 | 27.22° C | 47% | 1013.3 hPa | 0 mm | - | 395 W/m² | - |
* Rain latest hour (hover to see other rain measurements)
** Current wind speed in m/s (hover to see current wind gust speed)